Home   Weather   Poznan   Past weeks

Flag for Poland Past Weather in Poznan, Poland — Yesterday and Last 2 Weeks

Now
34 °F

Fog.


Feels Like: 27 °F
Forecast: 24 / 31 °F
Wind: 8 mph from West

Location: Poznan Airport

Current Time: Jan 21, 2017 at 5:49:37 am

Latest Report: Jan 21, 2017 at 5:00 am


Visibility: 1 mi

Pressure: 30.45 "Hg

Humidity: 100%

Dew Point: 34 °F

Location of PoznanLocation

Past Weather in Poznan — Graph

°F

Poznan Temperature Yesterday

Maximum temperature yesterday: 34 °F (at 7:00 pm)
Minimum temperature yesterday: 25 °F (at 12:00 am)
Average temperature yesterday: 30 °F

High & Low Weather Summary for the Past Weeks

 TemperatureHumidityPressure
High39 °F (Jan 13, 12:00 pm)100% (Jan 12, 4:30 am)30.74 "Hg (Jan 12, 4:30 am)
Low7 °F (Jan 6, 11:30 pm)50% (Jan 8, 2:30 pm)29.12 "Hg (Jan 13, 12:30 pm)
Average25 °F88%30.17 "Hg
* Reported Jan 6 4:00 am — Jan 21 4:30 am, Poznan, Weather by CustomWeather, © 2017

Note: Actual official high and low records may vary slightly from our data, if they occured in-between our weather recording intervals... More about our weather records

Advertising

Poznan Weather History for the Previous 24 Hours

Scroll right to see more
 ConditionsComfort  
Time TempWeatherWind HumidityBarometerVisibility
4:30 am
Sat, Jan 21
34 °FFog.8 mph93%30.45 "Hg1 mi
4:00 am34 °FFog.8 mph93%30.45 "Hg2 mi
3:30 am34 °FFog.7 mph93%30.45 "Hg2 mi
3:00 am34 °FFog.9 mph100%30.45 "Hg2 mi
2:30 am34 °FFog.8 mph100%30.45 "Hg2 mi
2:00 am34 °FFog.13 mph93%30.45 "Hg2 mi
1:30 am34 °FFog.8 mph93%30.45 "Hg2 mi
1:00 am34 °FFog.7 mph93%30.48 "Hg1 mi
12:30 am34 °FFog.9 mph93%30.48 "Hg1 mi
12:00 am34 °FFog.9 mph93%30.48 "Hg1 mi
11:30 pm
Fri, Jan 20
34 °FFog.9 mph93%30.48 "Hg1 mi
11:00 pm34 °FFog.9 mph93%30.48 "Hg2 mi
10:30 pm34 °FFog.10 mph93%30.48 "Hg2 mi
10:00 pm34 °FFog.10 mph93%30.48 "Hg2 mi
9:30 pm34 °FLow clouds.10 mph93%30.48 "Hg2 mi
9:00 pm34 °FFog.10 mph93%30.48 "Hg2 mi
8:30 pm34 °FFog.12 mph93%30.48 "Hg2 mi
8:00 pm34 °FFog.9 mph93%30.48 "Hg2 mi
7:30 pm34 °FFog.8 mph93%30.48 "Hg2 mi
7:00 pm34 °FFog.9 mph93%30.48 "Hg2 mi
6:30 pm32 °FIce fog.8 mph100%30.48 "Hg2 mi
6:00 pm32 °FDrizzle. Ice fog.8 mph100%30.48 "Hg2 mi
5:30 pm32 °FDrizzle. Ice fog.9 mph100%30.48 "Hg2 mi
5:00 pm32 °FDrizzle. Ice fog.7 mph100%30.48 "Hg1 mi
4:30 pm32 °FDrizzle. Ice fog.7 mph100%30.48 "Hg1 mi
4:00 pm32 °FIce fog.8 mph100%30.48 "Hg1 mi
3:30 pm32 °FIce fog.8 mph100%30.48 "Hg1 mi
3:00 pm32 °FIce fog.9 mph100%30.48 "Hg1 mi
2:30 pm32 °FDrizzle. Ice fog.7 mph100%30.51 "Hg1 mi
2:00 pm32 °FDrizzle. Ice fog.7 mph100%30.51 "Hg1 mi
1:30 pm32 °FDrizzle. Ice fog.8 mph100%30.51 "Hg1 mi
1:00 pm32 °FLight freezing rain. Ice fog.7 mph100%30.51 "Hg1 mi
12:30 pm32 °FLight freezing rain. Ice fog.7 mph93%30.51 "Hg1 mi
12:00 pm30 °FLight freezing rain. Ice fog.7 mph100%30.54 "Hg1 mi
11:30 am30 °FIce fog.6 mph100%30.54 "Hg2 mi
11:00 am30 °FIce fog.6 mph100%30.54 "Hg2 mi
10:30 am30 °FIce fog.6 mph100%30.54 "Hg2 mi
10:00 am30 °FIce fog.5 mph100%30.54 "Hg2 mi
9:30 am30 °FIce fog.7 mph93%30.54 "Hg2 mi
9:00 am30 °FIce fog.6 mph93%30.54 "Hg2 mi
8:30 am28 °FIce fog.7 mph100%30.54 "Hg2 mi
8:00 am28 °FIce fog.6 mph100%30.54 "Hg2 mi
7:30 am28 °FIce fog.6 mph100%30.54 "Hg2 mi
7:00 am28 °FIce fog.7 mph93%30.54 "Hg2 mi
6:30 am28 °FLight freezing rain. Ice fog.6 mph93%30.54 "Hg1 mi
6:00 am28 °FLight freezing rain. Ice fog.6 mph93%30.54 "Hg1 mi
5:30 am28 °FIce fog.6 mph93%30.54 "Hg2 mi
5:00 am27 °FIce fog.6 mph100%30.54 "Hg2 mi
Weather by CustomWeather, © 2017

See weather overviewHow to use our weather pages